Weather History for Sherman-Denison, TX

Change the Weather History Date:

Wednesday, September 18, 2013

  Actual Average (KDFW) Record (KDFW)
Temperature  
Mean Temperature 88 °F 77 °F  
Max Temperature 97 °F 88 °F 100 °F (1975)
Min Temperature 78 °F 67 °F 47 °F (1981)
Degree Days  
Heating Degree Days 0 0  
Month to date heating degree days 0  
Since 1 July heating degree days 0  
Cooling Degree Days 22 12  
Month to date cooling degree days 273  
Year to date cooling degree days 2455  
Growing Degree Days 38 (Base 50)    
Moisture  
Dew Point 64 °F    
Average Humidity 49    
Maximum Humidity 64    
Minimum Humidity 28    
Precipitation  
Precipitation 0.00 in 0.08 in 0.51 in (2001)
Month to date precipitation 1.63  
Year to date precipitation 25.74  
Sea Level Pressure  
Sea Level Pressure 29.97 in    
Wind  
Wind Speed 10 mph (SSE)    
Max Wind Speed 16 mph    
Max Gust Speed 22 mph    
Visibility 10 miles    
Events      
T = Trace of Precipitation, MM = Missing Value Source: NWS Daily Summary

Daily Weather History Graph

Daily Weather History Graph

Search for Another Location

Airport:

Trip Planner

Search our weather history database for the weather conditions in past years. The results will help you decide how hot, cold, wet, or windy it might be!

Date:

Astronomy

Sep. 18, 2013 Rise Set
Actual Time 7:12 AM CDT 7:28 PM CDT
Civil Twilight 6:47 AM CDT 7:53 PM CDT
Nautical Twilight 6:18 AM CDT 8:22 PM CDT
Astronomical Twilight 5:48 AM CDT 8:52 PM CDT
Moon 6:53 PM CDT (9/18) 6:16 AM CDT (9/18)
Length of Visible Light 13h 06m
Length of Day
12h 16m
Waxing Gibbous, 99% of the Moon is Illuminated
Sep 18
Waxing Gibbous
Sep 19
Full
Sep 26
Last Quarter
Oct 4
New
Oct 11
First Quarter

Hourly Weather History & Observations

Time (CDT) Temp. Heat Index Dew Point Humidity Pressure Visibility Wind Dir Wind Speed Gust Speed Precip Events Conditions
12:15 AM 83.3 °F 85.1 °F 65.3 °F 54% 30.01 in 10.0 mi SE 11.5 mph - N/A   Clear
12:35 AM 82.9 °F 84.8 °F 65.3 °F 55% 30.01 in 10.0 mi SE 11.5 mph - N/A   Clear
12:55 AM 82.6 °F 84.5 °F 65.3 °F 56% 30.01 in 10.0 mi SE 12.7 mph - N/A   Clear
1:15 AM 82.4 °F 84.2 °F 65.5 °F 56% 30.01 in 10.0 mi SE 11.5 mph - N/A   Clear
1:35 AM 82.4 °F 84.2 °F 65.5 °F 56% 30.01 in 10.0 mi SE 11.5 mph - N/A   Clear
1:55 AM 81.9 °F 83.7 °F 65.5 °F 57% 30.01 in 10.0 mi SE 11.5 mph - N/A   Clear
2:15 AM 81.7 °F 83.6 °F 65.7 °F 58% 30.00 in 10.0 mi SE 12.7 mph - N/A   Clear
2:35 AM 81.5 °F 83.4 °F 65.7 °F 58% 30.00 in 10.0 mi SE 11.5 mph - N/A   Scattered Clouds
2:55 AM 81.3 °F 83.3 °F 65.7 °F 59% 30.00 in 10.0 mi SE 11.5 mph - N/A   Clear
3:15 AM 81.3 °F 83.3 °F 65.7 °F 59% 29.99 in 10.0 mi SE 12.7 mph - N/A   Clear
3:35 AM 81.5 °F 83.4 °F 65.7 °F 58% 29.98 in 10.0 mi SE 10.4 mph - N/A   Clear
3:55 AM 80.8 °F 82.8 °F 65.8 °F 60% 29.99 in 10.0 mi SSE 11.5 mph - N/A   Clear
4:15 AM 80.8 °F 82.8 °F 65.8 °F 60% 29.98 in 10.0 mi SSE 10.4 mph - N/A   Clear
4:35 AM 80.6 °F 82.7 °F 65.8 °F 61% 29.98 in 10.0 mi SSE 9.2 mph - N/A   Clear
4:55 AM 80.2 °F 82.2 °F 65.8 °F 61% 29.97 in 10.0 mi SSE 10.4 mph - N/A   Clear
5:15 AM 80.1 °F 82.1 °F 65.8 °F 62% 29.97 in 10.0 mi SSE 10.4 mph - N/A   Clear
5:35 AM 79.9 °F - 65.7 °F 62% 29.97 in 10.0 mi SSE 11.5 mph - N/A   Clear
5:55 AM 79.7 °F - 65.8 °F 62% 29.98 in 10.0 mi SSE 10.4 mph - N/A   Clear
6:15 AM 79.7 °F - 65.7 °F 62% 29.98 in 10.0 mi SSE 8.1 mph - N/A   Clear
6:35 AM 79.3 °F - 65.7 °F 63% 29.98 in 10.0 mi South 6.9 mph - N/A   Clear
6:55 AM 79.0 °F - 65.7 °F 64% 29.99 in 10.0 mi Calm Calm - N/A   Clear
7:15 AM 78.8 °F - 65.8 °F 64% 29.99 in 10.0 mi South 5.8 mph - N/A   Clear
7:35 AM 79.2 °F - 66.0 °F 64% 30.00 in 10.0 mi SSE 5.8 mph - N/A   Clear
7:55 AM 79.5 °F - 66.0 °F 63% 30.01 in 10.0 mi SSE 6.9 mph - N/A   Clear
8:15 AM 79.9 °F - 66.2 °F 63% 30.02 in 10.0 mi South 6.9 mph - N/A   Clear
8:35 AM 80.6 °F 82.7 °F 66.2 °F 61% 30.02 in 10.0 mi South 6.9 mph - N/A   Clear
8:55 AM 81.5 °F 83.7 °F 66.4 °F 60% 30.02 in 10.0 mi South 8.1 mph - N/A   Clear
9:15 AM 82.6 °F 85.1 °F 66.7 °F 59% 30.03 in 10.0 mi South 6.9 mph - N/A   Clear
9:35 AM 84.0 °F 86.8 °F 67.1 °F 57% 30.03 in 10.0 mi South 9.2 mph - N/A   Clear
9:55 AM 84.6 °F 87.4 °F 67.1 °F 56% 30.04 in 10.0 mi SSW 8.1 mph - N/A   Clear
10:15 AM 85.1 °F 87.9 °F 67.3 °F 55% 30.04 in 10.0 mi SSW 9.2 mph - N/A   Clear
10:35 AM 86.7 °F 89.6 °F 66.9 °F 52% 30.04 in 10.0 mi SW 9.2 mph - N/A   Clear
10:55 AM 87.8 °F 90.0 °F 65.8 °F 48% 30.04 in 10.0 mi SSW 11.5 mph - N/A   Clear
11:15 AM 88.7 °F 91.1 °F 66.0 °F 47% 30.04 in 10.0 mi SSW 11.5 mph - N/A   Clear
11:35 AM 90.9 °F 92.3 °F 64.4 °F 41% 30.03 in 10.0 mi SSW 11.5 mph - N/A   Clear
11:55 AM 92.5 °F 94.6 °F 64.6 °F 40% 30.03 in 10.0 mi SSW 9.2 mph 16.1 mph N/A   Clear
12:15 PM 92.5 °F 94.1 °F 64.2 °F 39% 30.02 in 10.0 mi SSW 11.5 mph 20.7 mph N/A   Scattered Clouds
12:35 PM 93.4 °F 94.3 °F 63.0 °F 36% 30.02 in 10.0 mi SSW 13.8 mph 21.9 mph N/A   Clear
12:55 PM 92.8 °F 94.3 °F 63.5 °F 38% 30.01 in 10.0 mi SSW 12.7 mph 20.7 mph N/A   Clear
1:15 PM 93.4 °F 95.2 °F 64.2 °F 38% 30.00 in 10.0 mi South 13.8 mph 20.7 mph N/A   Scattered Clouds
1:35 PM 92.5 °F 94.1 °F 64.0 °F 39% 29.99 in 10.0 mi SSW 11.5 mph 19.6 mph N/A   Scattered Clouds
1:55 PM 94.5 °F 95.6 °F 62.8 °F 35% 29.98 in 10.0 mi South 10.4 mph 17.3 mph N/A   Scattered Clouds
2:15 PM 93.7 °F 94.5 °F 62.4 °F 35% 29.97 in 10.0 mi South 9.2 mph 12.7 mph N/A   Mostly Cloudy
2:35 PM 94.5 °F 95.2 °F 62.2 °F 34% 29.96 in 10.0 mi South 11.5 mph 17.3 mph N/A   Scattered Clouds
2:55 PM 95.0 °F 95.6 °F 61.9 °F 33% 29.95 in 10.0 mi South 13.8 mph 21.9 mph N/A   Scattered Clouds
3:15 PM 94.1 °F 94.6 °F 61.5 °F 34% 29.94 in 10.0 mi South 8.1 mph - N/A   Scattered Clouds
3:35 PM 94.8 °F 94.9 °F 61.0 °F 32% 29.93 in 10.0 mi South 15.0 mph 20.7 mph N/A   Mostly Cloudy
3:55 PM 94.8 °F 95.3 °F 61.3 °F 33% 29.92 in 10.0 mi South 9.2 mph - N/A   Scattered Clouds
4:15 PM 97.0 °F 96.5 °F 59.2 °F 28% 29.91 in 10.0 mi South 11.5 mph 19.6 mph N/A   Scattered Clouds
4:35 PM 95.2 °F 95.5 °F 61.0 °F 32% 29.91 in 10.0 mi South 12.7 mph 20.7 mph N/A   Scattered Clouds
4:55 PM 95.9 °F 95.7 °F 60.1 °F 30% 29.90 in 10.0 mi SSE 12.7 mph 20.7 mph N/A   Scattered Clouds
5:15 PM 96.4 °F 96.5 °F 59.9 °F 30% 29.90 in 10.0 mi SSE 13.8 mph 20.7 mph N/A   Scattered Clouds
5:35 PM 96.4 °F 95.7 °F 58.8 °F 28% 29.90 in 10.0 mi South 13.8 mph 20.7 mph N/A   Mostly Cloudy
5:55 PM 95.0 °F 94.8 °F 59.7 °F 31% 29.90 in 10.0 mi South 16.1 mph 19.6 mph N/A   Scattered Clouds
6:15 PM 93.4 °F 93.2 °F 59.9 °F 33% 29.90 in 10.0 mi South 10.4 mph - N/A   Clear
6:35 PM 94.1 °F 92.8 °F 57.7 °F 29% 29.90 in 10.0 mi South 12.7 mph - N/A   Clear
6:55 PM 92.7 °F 91.5 °F 58.3 °F 31% 29.90 in 10.0 mi South 11.5 mph - N/A   Clear
7:15 PM 91.6 °F 90.7 °F 58.5 °F 33% 29.90 in 10.0 mi South 9.2 mph - N/A   Clear
7:35 PM 90.5 °F 89.8 °F 59.0 °F 35% 29.90 in 10.0 mi SSE 8.1 mph - N/A   Clear
7:55 PM 89.8 °F 89.1 °F 59.2 °F 36% 29.90 in 10.0 mi SSE 6.9 mph - N/A   Clear
8:15 PM 88.3 °F 87.6 °F 59.4 °F 37% 29.91 in 10.0 mi SSE 5.8 mph - N/A   Clear
8:35 PM 87.8 °F 87.4 °F 59.9 °F 39% 29.92 in 10.0 mi ESE 5.8 mph - N/A   Clear
8:55 PM 85.3 °F 86.4 °F 63.7 °F 48% 29.93 in 10.0 mi East 5.8 mph - N/A   Clear
9:15 PM 84.4 °F 85.9 °F 64.2 °F 51% 29.94 in 10.0 mi East 5.8 mph - N/A   Clear
9:35 PM 83.7 °F 85.1 °F 64.6 °F 52% 29.95 in 10.0 mi East 6.9 mph - N/A   Clear
9:55 PM 82.4 °F 84.6 °F 66.2 °F 58% 29.95 in 10.0 mi East 6.9 mph - N/A   Clear
10:15 PM 81.9 °F 84.4 °F 67.1 °F 61% 29.95 in 10.0 mi East 6.9 mph - N/A   Clear
10:35 PM 81.5 °F 83.7 °F 66.2 °F 60% 29.96 in 10.0 mi ESE 6.9 mph - N/A   Clear
10:55 PM 81.5 °F 83.4 °F 65.7 °F 58% 29.96 in 10.0 mi ESE 8.1 mph - N/A   Clear
11:15 PM 80.6 °F 82.9 °F 66.7 °F 63% 29.95 in 10.0 mi ESE 8.1 mph - N/A   Clear
11:35 PM 80.2 °F 82.5 °F 66.7 °F 63% 29.95 in 10.0 mi East 6.9 mph - N/A   Clear
11:55 PM 80.4 °F 82.2 °F 65.1 °F 59% 29.95 in 10.0 mi ESE 8.1 mph - N/A   Clear